Back to catalog

STARLINK-31181

AliveCommunicationsVLEO
NORAD 58746·PAYLOAD·🇺🇸 United States

Launched Jan 7, 2024 from Cape Canaveral Space Force Station

Loading…

Next Passes (next 24 hours)

TLE

FreshSource: CelesTrak SupGP

Epoch: Sep 14, 2026, 21:44 UTC

1 58746C 24005U   26257.90604167  .00038637  00000+0  13997-2 0  2570
2 58746  42.9998  78.9272 0001322 272.0854 324.9686 15.27553644    15

Track STARLINK-31181 in real time with AllMySat

Download on the App Store